Regional Weather Roundup
Issued by NWS

Home | Current Version | Previous Version | Text Only | Print | Product List | Glossary Off
Versions: 1 2 3 4 5 6 7 8 9 10 11 12 13 14 15 16 17 18 19 20 21 22 23 24 25 26 27 28 29

000
ASUS45 KTFX 281810
RWRMT
MONTANA REGIONAL WEATHER ROUNDUP
NATIONAL WEATHER SERVICE GREAT FALLS MT
1200 PM MDT THU APR 28 2016

NOTE: "FAIR" INDICATES FEW OR NO CLOUDS BELOW 12000 FEET WITH NO
SIGNIFICANT WEATHER AND/OR OBSTRUCTIONS TO VISIBILITY.

MTZ001>007-043-281900-
WEST OF THE DIVIDE

CITY           SKY/WX    TMP DP  RH WIND       PRES   REMARKS
KALISPELL      CLOUDY    52  29  41 NE15      30.04S
MISSOULA       CLOUDY    50  29  44 SE12      30.03S
BUTTE          CLOUDY    35  29  78 W3        29.98S
MULLAN PASS    CLOUDY    38  28  67 CALM      29.99S
ANACONDA         N/A     39  27  60 N9G17     29.99S
DEER LODGE       N/A     39  27  60 N15G22    30.01F WCI  31
EUREKA           N/A     54  32  43 CALM      30.06
HAMILTON         N/A     46  28  49 N13       29.99F
LIBBY            N/A     52  34  50 N6        30.03F
PLAINS           N/A     52  35  52 W2        30.03S
$$

MTZ008-052>055-281900-
SOUTHWEST MONTANA

CITY           SKY/WX    TMP DP  RH WIND       PRES   REMARKS
BOZEMAN        CLOUDY    39  33  79 CALM      30.01S
DILLON         CLOUDY    43  26  51 NE15      29.93F
ENNIS          PTSUNNY   41  27  56 NW20G28   29.97S
THREE FORKS      N/A     38  10  31 CALM      30.01S
TWIN BRIDGES     N/A     46  24  42 NW22      29.93F
$$

MTZ009-010-012-014-046-048-049-054-281900-
EAST SLOPES AND CENTRAL MONTANA

CITY           SKY/WX    TMP DP  RH WIND       PRES   REMARKS
CUT BANK       CLOUDY    40  33  76 SE15      30.14S
GREAT FALLS    LGT RAIN  36  33  89 E5        30.10F
MALMSTROM AFB  CLOUDY    39  36  87 E17       30.11S WCI  30
HELENA         CLOUDY    42  29  59 N8        30.04S
CHOTEAU          N/A     36  36 100 E12       30.13S FOG     WCI  27
CONRAD           N/A     40  39  96 NE10      30.14S
$$

MTZ011-013-016-021-045-047-050-051-281900-
NORTH CENTRAL MONTANA

CITY           SKY/WX    TMP DP  RH WIND       PRES   REMARKS
HAVRE          CLOUDY    50  36  58 VRB7      30.14F
LEWISTOWN      FLURRIES  38  32  79 E12       30.10S WCI  30
N BAR RANCH    MIX PCPN  32  30  93 E6        30.12S WCI  26
CHINOOK          N/A     50  36  57 CALM      30.15S
$$

MTZ017>020-022>027-061-062-281900-
NORTHEAST MONTANA

CITY           SKY/WX    TMP DP  RH WIND       PRES   REMARKS
GLASGOW        CLOUDY    50  30  46 E8        30.14F
JORDAN           N/A     45  35  68 NE7       30.13R
SIDNEY         MOSUNNY   52  28  40 NE14      30.14F
WOLF POINT     MOSUNNY   52  26  36 NE13G22   30.15F
PLENTYWOOD       N/A     52  18  25 E17       30.17S
POPLAR           N/A     50  27  40 NE17      30.16S
SCOBEY           N/A     52  22  31 E12       30.14S
$$

MTZ028>42-056>058-281900-
SOUTHCENTRAL AND SOUTHEAST MONTANA

CITY           SKY/WX    TMP DP  RH WIND       PRES   REMARKS
BAKER          LGT RAIN  37  33  85 E9        30.10S FOG     WCI  30
BILLINGS       FLURRIES  33  32  96 NE8       30.10R WCI  26
LIVINGSTON     CLOUDY    37  31  78 E21G26    30.02S WCI  26
MILES CITY     CLOUDY    43  35  73 N10       30.10F
EKALAKA          N/A     36  34  92 NE7       30.04S WCI  30
FORSYTH          N/A     39  37  93 N8        30.12S
LAUREL           N/A     37  30  76 NE8       30.07R WCI  31
ROUNDUP          N/A     34  31  89 NE6       30.02S WCI  29
$$

REGIONAL REPORTS...DAKOTAS

CITY           SKY/WX    TMP DP  RH WIND       PRES   REMARKS
WILLISTON      MOSUNNY   54  22  28 E16       30.15F
MINOT          MOSUNNY   59  14  17 NE14G22   30.14S
DICKINSON      CLOUDY    43  32  65 SE7       30.09S
BEACH          CLOUDY    41  34  75 NE9       30.14S
CROSBY           N/A     55  14  19 E18G26    30.19S
TIOGA            N/A     50  16  25 E17G23    30.20S
WATFORD CITY     N/A     50  25  37 E12       30.14F
BISMARCK       PTSUNNY   54  25  32 E8        30.10F
GRAND FORKS    PTSUNNY   55  20  25 E20       30.12S
FARGO          MOSUNNY   55  18  23 NE14      30.06S
BUFFALO SD       N/A     36  32  85 NE12      30.01S WCI  28
RAPID CITY     CLOUDY    38  34  85 NW13      30.06R WCI  30
$$

REGIONAL REPORTS...WYOMING/IDAHO/WASHINGTON

CITY           SKY/WX    TMP DP  RH WIND       PRES   REMARKS
GILLETTE       LGT SNOW  34  31  88 N9        30.04S FOG     WCI  27
SHERIDAN       CLOUDY    38  33  82 NE7       30.07R
BUFFALO WY     CLOUDY    35  28  75 N9        30.04R WCI  28
CODY           CLOUDY    36  28  75 N13       30.01S WCI  27
YELLOWSTONE LA   N/A     34  21  59 VRB3      29.90S
IDAHO FALLS    MOSUNNY   54  28  36 N10       29.81F
SALMON         CLOUDY    46  27  46 SE3       29.92S
BOISE            N/A     62  37  39 N13       29.82F
SPOKANE        PTSUNNY   59  33  37 E8        29.98F
$$

REGIONAL REPORTS...ALBERTA

CITY           SKY/WX    TMP DP  RH WIND       PRES   REMARKS
EDMONTON       SUNNY     54  34  47 S17G23    30.13F
CALGARY        PTSUNNY   45  32  61 S16G24    30.13R
LETHBRIDGE     PTSUNNY   46  34  61 S14G26    30.16S
MEDICINE HAT   CLOUDY    54  36  50 N7        30.18S
WATERTON GATE    N/A     43  28  56 E16G26      N/A
MILK RIVER       N/A     43  34  70 E7          N/A
ONEFOUR          N/A     50  30  46 E13G20      N/A
$$

REGIONAL REPORTS...SASKATCHEWAN

CITY           SKY/WX    TMP DP  RH WIND       PRES   REMARKS
REGINA         PTSUNNY   55  16  21 E12G20    30.21F
SASKATOON      PTSUNNY   57  23  26 E10       30.26S
CYPRESS HILLS    N/A     41  23  48 NE3         N/A
VAL MARIE        N/A     52  27  37 E12G21      N/A
ROCKGLEN         N/A     52  23  32 E7          N/A
ASSINIBOIA       N/A     57  34  41 S12G17      N/A
$$




USA.gov is the U.S. government's official web portal to all federal, state and local government web resources and services.